USA 325

Last updated on Fri Oct 31 2025 00:02:49 GMT+0000 (Coordinated Universal Time)

1 51281U 22006B 25302.34792373 -.00000315 00000+0 00000+0 0 9995 2 51281 0.0245 285.0986 0008314 254.9015 81.7643 1.00493871 13815
UTC large
Height (km)
Speed (km/s)
/
Latitude / Longitude
Inclination (degrees)
Orbital Period (minutes)
Azimuth
Elevation
Range (km)
Doppler Factor

Next 0 passes for location: London (51.5072 / 0.1276)

Sorry there are no passes over London.